FLOCK 3R-11 (43725 NORAD) Tracking and Keplerian Element Data

This shows tracking and keplerian element data for the satellite.

Feedback or suggestion? Click here.




ElementValue
Catalog43725
NameFLOCK 3R-11
Epoch Orbit162
Epoch Day343.86676774
Epoch Year2018
RAAN48.8691
Inclination97.4846
Eccentricity0.0016867
Argument of Perigee287.284
Mean Anonmoly162.3799
Mean Motion15.25967285
Decay Rate2.465E-05
L11 43725U 18096G 18343.86676774 .00002465 00000-0 98557-4 0 9990
L22 43725 97.4846 48.8691 0016867 287.2840 162.3799 15.25967285 1622

Live tracking and technical data element details for FLOCK 3R-11 (NORAD 43725). FLOCK 3R-11 can be tracked NOW for your location showing map with azimuth and elevation plus other details from your city location.

Track the satellite on the map from your city or location and see movement details for azimuth, elevation, latitude, longitude, range, height, and movement on the map or in text.







IsCatalogInMostPopularTable: catalog: 43725, numindb: 5
Update: records affected: 1



GetName: 43725 FLOCK 3R-11

Hit Count: updated at: Tue, 11 Dec 2018 02:53:09 GMT